Wind_Speed
28 29 29 30 31 32 31 28 27 27 27 27 28 28 28 27 26 25 24 24 23 23 22 22 21 20 19 19 19 19 18 17 16 15 15 14 13 13 13 13 13 13 12 12 11 11 11 10 10
29 30 31 32 34 33 31 29 28 28 29 29 30 30 30 28 27 27 26 25 25 25 24 24 23 22 21 21 20 20 20 20 18 17 16 16 15 15 15 15 15 15 14 13 13 13 13 12 12
31 32 32 34 35 34 31 30 30 29 30 31 31 32 32 30 29 28 28 27 27 27 26 26 25 25 24 23 22 22 22 22 21 20 19 18 17 17 16 16 17 16 16 15 15 15 14 14 14
32 33 34 35 35 34 33 31 31 32 32 32 33 33 33 32 31 30 29 29 29 29 29 28 27 27 26 25 25 24 24 23 23 22 21 20 19 19 18 18 18 18 17 17 17 16 16 15 15
34 35 36 37 36 34 34 33 34 35 34 35 35 34 34 34 34 32 32 32 31 31 30 30 30 29 29 28 27 27 26 26 25 24 23 22 22 21 20 20 20 20 19 19 19 18 18 17 17
35 36 38 37 37 35 35 35 36 37 37 37 37 37 36 35 35 34 34 34 34 33 32 33 32 32 31 31 30 29 29 28 28 27 26 25 24 23 22 21 22 22 22 21 20 20 20 19 19
36 37 39 38 38 37 37 37 38 39 39 39 39 39 38 37 37 36 36 36 36 36 35 35 34 34 33 32 32 31 31 31 30 29 28 27 27 25 24 24 23 23 23 23 23 22 22 21 21
35 37 38 38 39 38 38 39 40 41 41 40 40 41 39 39 39 39 38 38 38 38 37 37 36 36 35 34 34 33 33 33 32 31 31 30 29 27 27 26 26 26 25 25 24 24 23 23 23
32 35 36 37 38 37 38 39 40 41 42 42 42 42 41 41 41 41 40 39 40 40 40 39 38 38 38 37 36 36 35 35 34 34 33 32 31 30 29 28 28 27 27 26 26 26 26 25 25
31 33 33 34 36 36 36 38 40 42 43 43 43 43 43 42 42 42 41 41 41 42 41 41 40 40 39 39 38 38 37 37 36 36 35 34 33 32 32 31 30 29 28 28 28 28 28 27 27
29 31 31 32 34 35 35 36 39 41 43 44 44 44 44 44 44 43 42 42 43 43 43 43 42 41 40 40 40 39 39 39 38 38 37 36 35 34 34 33 32 31 30 29 29 29 29 29 28
28 28 29 30 33 34 35 37 39 40 41 43 44 44 45 46 45 45 44 43 43 43 44 44 43 42 42 41 41 41 41 40 40 39 38 37 36 35 36 35 34 33 32 31 30 30 29 29 29
28 27 26 28 32 34 35 37 38 40 41 41 42 43 44 45 46 45 44 44 43 44 44 45 45 44 43 42 41 41 42 43 42 42 40 39 38 37 37 36 35 34 33 32 31 30 30 30 29
27 27 27 28 30 33 34 35 37 39 39 39 40 41 42 44 45 44 44 44 43 44 44 44 45 45 44 43 41 42 41 42 43 42 41 41 40 38 37 37 36 35 34 33 32 32 31 30 30
27 27 28 28 30 32 33 34 35 37 38 39 39 41 42 43 44 44 45 44 44 44 45 45 45 45 45 44 43 43 42 43 44 43 42 40 40 38 38 38 38 37 36 35 34 33 32 32 32
28 28 27 27 28 29 31 30 32 35 36 38 40 41 41 42 43 43 45 45 45 45 44 45 45 45 45 44 43 44 43 43 43 43 43 42 40 40 39 38 37 36 35 34 34 33 33 32 32
28 28 26 26 25 27 28 28 28 31 33 35 38 40 41 41 43 43 44 44 45 45 45 45 45 46 46 45 43 43 43 43 42 43 44 43 42 41 40 38 37 36 35 35 35 34 34 34 33
26 26 25 25 24 24 25 26 26 26 28 31 34 36 39 41 42 43 43 44 45 45 44 45 46 46 46 46 44 45 45 44 42 42 44 44 43 42 42 39 37 37 36 36 35 35 35 34 33
25 25 25 25 24 24 24 25 25 25 26 28 32 34 37 40 40 43 43 43 44 45 44 44 45 46 46 47 46 44 45 45 44 43 43 44 44 42 42 41 38 37 38 37 36 35 35 34 34
24 24 24 24 24 24 24 24 25 27 28 29 30 31 33 37 39 40 42 41 42 43 43 44 44 45 45 46 47 47 45 45 45 44 43 43 44 43 43 42 41 39 37 37 37 37 36 35 35
23 23 23 23 23 22 23 24 24 25 26 26 28 29 30 33 37 38 40 40 41 42 42 43 44 45 46 45 47 48 48 46 46 45 44 45 45 44 43 42 42 41 39 38 37 37 37 36 37
22 22 23 22 22 22 23 24 21 21 23 24 26 27 28 30 33 36 38 40 41 42 42 43 43 44 45 46 46 47 47 47 46 45 44 45 46 46 45 44 42 42 41 38 37 38 38 37 37
21 21 22 22 22 23 23 23 20 22 22 23 24 25 25 26 29 32 35 37 39 41 42 43 43 43 44 45 45 45 45 46 45 45 45 46 46 46 45 45 44 42 41 40 39 37 37 37 37
20 20 21 22 22 22 22 23 22 22 22 22 22 23 23 25 27 29 32 35 37 40 41 42 43 44 45 45 45 46 45 45 46 46 46 46 47 47 45 45 45 44 42 41 40 39 39 39 38
19 20 21 21 21 21 22 23 23 22 22 22 23 23 24 24 25 27 29 32 34 37 40 41 42 43 45 45 45 46 46 47 46 47 46 46 47 47 46 47 46 46 44 43 42 40 40 39 38
20 20 20 20 21 21 22 22 21 21 21 22 23 22 23 24 24 27 28 30 32 34 37 39 41 42 44 44 44 45 46 48 47 47 46 45 45 46 46 46 46 46 45 43 42 41 40 40 38
20 20 20 20 22 22 23 23 21 21 22 23 23 24 24 24 24 26 28 29 30 32 34 37 38 39 41 43 44 44 45 46 47 47 46 46 45 46 45 45 47 47 46 44 42 40 40 40 39
19 19 19 19 21 22 22 21 20 21 22 23 24 24 25 24 25 26 27 29 30 32 33 35 36 37 39 41 43 44 44 44 45 47 46 45 45 46 46 45 45 46 45 45 43 42 41 40 40
19 19 19 19 20 21 21 21 19 21 22 23 24 25 24 25 26 25 26 28 30 32 33 33 34 36 37 39 40 42 43 43 44 44 45 45 45 44 45 43 44 44 44 43 44 44 43 42 42
19 20 20 20 21 21 22 21 20 22 23 23 24 25 24 25 26 26 27 27 28 30 32 33 33 34 36 37 38 40 42 42 42 43 44 44 45 43 44 45 43 43 43 43 43 43 42 43 42
Wind_Direction
251 252 252 253 255 256 256 254 252 250 248 246 245 245 246 247 246 247 246 245 245 243 241 238 237 237 236 235 236 238 239 240 240 241 243 243 243 246 248 249 249 250 252 255 258 260 260 264 268
252 253 254 255 257 258 257 254 251 249 249 247 247 246 245 246 246 246 246 246 245 244 243 240 238 238 237 237 237 238 240 240 241 243 244 243 244 246 248 251 251 251 252 255 259 260 261 264 267
254 254 255 257 258 258 257 254 251 249 248 247 247 246 246 246 246 245 244 245 245 243 243 242 239 238 238 237 238 238 239 240 241 242 244 245 245 247 248 251 253 253 254 255 257 259 263 265 267
255 256 256 259 260 259 256 254 251 248 247 247 246 246 247 247 247 245 244 245 245 244 243 243 241 239 239 238 238 238 239 240 241 243 245 246 246 248 250 251 252 253 255 255 256 258 262 265 266
257 257 257 259 260 259 255 252 250 247 246 246 246 245 246 247 247 246 245 244 245 244 244 243 242 240 239 239 239 239 240 241 242 245 246 246 247 248 251 252 252 253 254 256 257 258 261 264 266
258 259 259 260 260 258 255 252 249 247 245 246 246 245 246 247 247 247 246 244 245 245 244 243 242 241 240 239 239 239 240 241 243 245 247 247 248 249 251 252 253 254 255 256 259 260 261 263 266
258 259 260 260 259 258 255 252 249 247 245 246 246 246 246 246 246 247 245 244 245 245 244 243 242 241 241 241 240 239 240 241 242 244 245 247 248 251 252 253 254 255 257 258 260 262 262 262 265
262 261 260 259 258 257 255 252 249 247 246 245 247 247 245 246 247 247 245 244 244 244 243 243 241 241 241 241 242 241 241 241 242 243 244 246 248 251 253 254 255 257 258 259 261 262 262 263 264
264 264 262 260 259 258 256 253 250 248 247 246 246 247 246 246 246 247 246 245 244 243 242 241 241 241 241 241 241 242 242 243 244 245 245 247 249 251 253 255 257 259 260 261 262 263 262 263 263
264 267 265 263 261 259 256 254 251 247 247 246 245 246 246 245 245 246 246 246 244 243 242 241 241 240 240 241 241 242 243 243 244 245 247 247 249 252 254 256 257 259 261 262 263 264 263 262 262
266 271 268 263 261 259 255 254 252 250 248 246 244 244 245 244 245 245 245 246 245 243 242 241 240 240 240 241 241 242 244 243 244 246 247 248 250 252 254 256 257 259 261 262 263 263 263 263 262
267 274 272 263 261 260 257 255 253 251 249 246 245 244 244 245 245 246 246 246 244 241 240 239 238 238 240 241 240 241 243 244 245 245 247 248 250 252 254 255 257 258 260 261 261 263 262 262 261
269 275 276 269 264 262 260 256 253 251 249 247 245 244 244 245 246 245 244 244 244 241 238 238 237 237 238 241 240 241 243 244 244 245 246 247 249 252 254 255 256 258 259 260 260 261 261 261 260
271 276 277 274 268 263 261 257 255 252 249 247 246 245 244 244 244 244 243 242 242 241 238 239 238 237 238 239 240 241 242 244 245 246 246 247 249 250 252 253 255 256 257 258 259 259 260 261 261
274 278 279 277 273 268 264 259 255 253 249 247 247 246 245 244 243 243 242 241 241 240 239 238 239 238 238 239 240 242 244 245 245 245 245 246 248 250 252 254 253 254 255 255 256 259 260 261 260
275 278 279 277 273 269 266 263 257 253 251 248 247 246 246 244 242 242 241 241 240 241 240 239 238 239 238 239 240 241 243 243 244 245 245 245 247 249 251 252 253 252 253 253 255 258 260 260 260
274 277 279 277 275 270 266 265 263 257 254 250 248 246 245 244 242 242 241 240 240 240 241 239 238 238 238 238 240 241 242 242 242 244 245 245 247 248 249 251 252 252 253 253 255 257 258 259 259
277 277 280 279 278 274 268 266 266 261 256 252 250 248 246 245 243 241 241 240 239 239 240 240 239 239 239 239 240 242 241 242 242 243 245 246 247 248 248 250 252 252 253 254 255 256 259 259 258
279 279 281 281 282 277 270 267 266 261 258 255 252 250 248 246 244 242 241 240 239 239 239 239 239 239 239 239 239 241 242 243 243 243 246 247 246 246 246 248 250 250 251 252 254 256 258 258 257
284 280 280 280 282 279 274 270 267 263 260 257 254 251 249 247 245 243 241 241 239 238 238 238 238 238 238 239 239 240 243 243 244 245 245 246 244 244 245 247 248 249 250 252 255 255 255 256 256
290 285 280 280 283 281 279 271 267 264 263 258 255 256 252 250 247 245 241 240 240 239 238 239 239 240 240 241 241 242 243 245 245 245 244 244 244 244 244 246 248 250 251 254 254 255 254 254 255
293 287 282 282 285 282 282 281 269 268 260 257 257 259 256 252 249 246 242 240 240 240 239 240 241 241 241 242 242 243 244 245 245 243 242 243 244 244 245 246 249 250 253 254 254 255 254 254 255
295 288 284 283 283 281 282 283 278 275 266 263 259 259 259 254 250 246 243 243 242 241 241 241 241 240 241 242 243 243 244 245 245 244 242 242 244 245 245 247 249 250 252 253 254 255 255 255 257
295 292 287 285 285 284 284 285 283 278 273 269 263 261 262 257 251 250 247 245 244 243 242 242 241 241 242 243 244 244 245 246 245 244 242 243 245 245 246 248 247 249 252 254 256 257 257 257 257
294 293 291 287 286 288 289 289 287 280 273 269 265 265 265 262 254 251 249 246 244 244 243 243 242 242 243 244 245 245 246 246 246 244 242 243 245 245 246 247 247 249 250 253 255 257 256 257 257
293 293 291 288 286 289 290 290 287 279 272 268 267 267 269 262 258 253 250 247 245 245 245 244 243 244 244 244 246 247 247 245 244 244 243 244 244 244 247 248 248 248 251 253 254 255 255 255 256
290 291 291 289 287 289 291 289 283 277 271 269 269 267 268 264 259 256 250 247 248 248 246 246 247 247 247 246 247 246 245 245 243 242 242 244 245 245 247 248 248 249 249 250 251 252 253 252 255
291 291 293 290 289 291 293 292 286 282 279 274 271 270 268 264 262 257 253 251 250 249 249 250 250 250 249 248 247 245 244 244 242 241 242 245 246 246 246 247 249 249 248 249 249 251 251 253 254
292 290 290 289 289 290 292 295 289 286 284 280 275 272 270 267 264 260 256 253 255 253 252 253 253 252 250 248 248 246 245 244 243 243 245 246 246 246 246 247 247 247 248 249 250 251 251 254 255
293 291 291 291 291 289 289 292 289 285 282 279 276 273 271 268 263 259 256 255 256 257 256 256 256 255 252 250 248 248 247 246 245 244 245 246 246 246 246 246 246 246 247 248 250 250 253 255 255
Height
5815 5816 5817 5817 5816 5816 5817 5821 5823 5825 5827 5829 5830 5831 5833 5836 5839 5843 5843 5844 5846 5848 5850 5851 5852 5854 5856 5857 5858 5860 5861 5862 5863 5864 5865 5866 5866 5867 5867 5868 5868 5868 5868 5868 5868 5868 5868 5868 5868
5808 5809 5809 5808 5807 5807 5811 5815 5816 5818 5821 5822 5823 5825 5827 5830 5832 5835 5837 5839 5841 5843 5845 5847 5848 5850 5852 5853 5855 5857 5858 5859 5860 5861 5862 5863 5864 5864 5865 5865 5865 5866 5866 5866 5866 5866 5866 5866 5866
5800 5800 5801 5799 5798 5800 5805 5808 5810 5811 5813 5814 5816 5818 5821 5823 5826 5828 5831 5833 5836 5838 5840 5842 5844 5845 5847 5849 5851 5853 5854 5856 5857 5858 5859 5860 5861 5861 5862 5862 5862 5863 5863 5863 5863 5863 5863 5863 5863
5791 5792 5791 5791 5791 5794 5798 5800 5802 5803 5805 5807 5809 5811 5814 5817 5819 5822 5824 5827 5829 5832 5834 5836 5839 5840 5842 5844 5846 5848 5850 5851 5853 5854 5855 5856 5857 5858 5858 5859 5859 5859 5860 5860 5860 5860 5860 5860 5860
5782 5782 5781 5781 5783 5786 5789 5791 5792 5794 5797 5799 5801 5804 5806 5809 5811 5815 5817 5820 5822 5825 5828 5830 5832 5835 5836 5838 5841 5843 5845 5847 5848 5850 5851 5852 5853 5854 5855 5855 5855 5856 5856 5856 5856 5857 5857 5857 5857
5772 5772 5771 5771 5774 5778 5780 5782 5783 5785 5788 5790 5793 5796 5799 5802 5804 5807 5810 5812 5815 5818 5821 5823 5826 5828 5830 5833 5835 5837 5839 5841 5843 5845 5846 5847 5848 5849 5850 5851 5851 5852 5852 5852 5852 5853 5853 5853 5853
5763 5762 5761 5763 5765 5768 5771 5772 5773 5775 5779 5782 5784 5788 5791 5794 5796 5799 5802 5805 5807 5810 5813 5816 5818 5821 5824 5826 5829 5831 5833 5835 5837 5839 5840 5842 5843 5844 5845 5846 5847 5847 5848 5848 5848 5848 5848 5848 5849
5752 5752 5751 5752 5754 5758 5761 5762 5764 5766 5769 5773 5775 5779 5783 5785 5788 5790 5793 5796 5799 5801 5805 5808 5811 5813 5816 5819 5822 5824 5826 5828 5830 5832 5834 5836 5837 5839 5840 5841 5841 5842 5842 5843 5843 5843 5843 5843 5844
5742 5742 5742 5743 5745 5748 5750 5751 5753 5755 5758 5761 5765 5769 5773 5775 5778 5781 5784 5787 5789 5792 5796 5799 5802 5805 5808 5811 5814 5817 5819 5821 5823 5825 5828 5829 5831 5832 5833 5834 5835 5836 5837 5837 5837 5837 5837 5838 5838
5733 5733 5734 5735 5735 5737 5738 5739 5741 5744 5747 5751 5754 5758 5762 5765 5768 5771 5774 5777 5780 5783 5786 5790 5793 5796 5799 5803 5806 5808 5810 5813 5816 5818 5820 5822 5824 5825 5827 5828 5829 5830 5830 5831 5831 5831 5831 5831 5832
5725 5725 5725 5725 5725 5726 5727 5729 5730 5733 5736 5740 5744 5748 5751 5754 5757 5760 5764 5767 5770 5772 5776 5780 5784 5787 5790 5794 5797 5800 5801 5804 5808 5810 5813 5815 5816 5818 5819 5820 5821 5822 5823 5824 5824 5824 5824 5825 5826
5718 5717 5716 5716 5716 5716 5717 5718 5720 5722 5726 5729 5732 5736 5739 5743 5746 5750 5753 5756 5759 5762 5765 5769 5774 5777 5781 5784 5788 5791 5793 5796 5799 5801 5804 5806 5808 5810 5811 5813 5814 5815 5816 5816 5817 5817 5818 5818 5819
5710 5710 5708 5708 5707 5707 5707 5708 5709 5712 5715 5717 5720 5724 5728 5731 5735 5739 5742 5744 5747 5751 5755 5759 5763 5767 5771 5774 5778 5781 5784 5787 5790 5792 5795 5797 5799 5801 5803 5804 5806 5807 5808 5809 5809 5810 5811 5812 5812
5704 5702 5700 5699 5698 5698 5698 5698 5699 5701 5704 5707 5710 5713 5717 5720 5723 5727 5730 5733 5736 5740 5744 5748 5753 5757 5761 5765 5768 5771 5774 5776 5780 5782 5785 5787 5789 5791 5793 5795 5797 5798 5800 5801 5802 5803 5804 5804 5806
5696 5695 5694 5692 5690 5689 5689 5689 5689 5691 5693 5696 5700 5703 5706 5709 5712 5716 5720 5723 5726 5730 5734 5738 5742 5747 5751 5755 5758 5761 5764 5766 5769 5772 5775 5777 5779 5782 5784 5785 5787 5789 5791 5792 5794 5795 5796 5797 5798
5690 5688 5687 5685 5683 5681 5681 5681 5681 5681 5683 5686 5689 5692 5695 5697 5701 5705 5709 5712 5716 5719 5723 5728 5732 5736 5741 5745 5748 5751 5754 5756 5759 5762 5765 5768 5770 5772 5774 5776 5778 5780 5782 5784 5786 5787 5789 5790 5791
5683 5682 5679 5678 5676 5674 5673 5673 5673 5673 5673 5675 5678 5681 5684 5687 5690 5694 5698 5701 5705 5709 5712 5717 5721 5726 5730 5734 5738 5741 5744 5746 5749 5752 5755 5758 5760 5763 5765 5767 5770 5772 5774 5776 5778 5779 5781 5782 5783
5677 5675 5673 5671 5669 5667 5666 5666 5666 5665 5665 5667 5669 5671 5674 5676 5680 5683 5687 5690 5694 5698 5702 5706 5710 5715 5719 5723 5727 5730 5734 5736 5739 5742 5746 5748 5751 5753 5756 5758 5760 5763 5765 5767 5769 5771 5773 5774 5776
5671 5669 5667 5665 5662 5661 5660 5659 5659 5658 5658 5659 5660 5661 5663 5666 5670 5673 5676 5680 5683 5688 5692 5696 5700 5705 5709 5713 5717 5720 5723 5726 5730 5732 5736 5738 5741 5743 5746 5749 5752 5754 5757 5759 5761 5763 5764 5766 5767
5665 5663 5661 5659 5656 5655 5654 5654 5653 5652 5651 5651 5652 5653 5654 5656 5659 5663 5666 5670 5674 5678 5682 5686 5690 5694 5698 5702 5706 5710 5712 5715 5719 5722 5725 5728 5731 5734 5737 5740 5743 5745 5748 5750 5752 5754 5756 5758 5759
5660 5657 5655 5653 5651 5649 5648 5648 5648 5646 5645 5644 5644 5644 5645 5647 5650 5653 5656 5660 5664 5668 5672 5676 5680 5684 5688 5692 5696 5699 5702 5704 5708 5712 5715 5719 5721 5725 5728 5731 5734 5736 5739 5741 5743 5745 5747 5749 5750
5655 5653 5650 5648 5646 5644 5643 5641 5643 5641 5639 5638 5638 5639 5639 5640 5641 5644 5647 5651 5655 5659 5662 5667 5670 5674 5678 5682 5685 5689 5692 5695 5698 5702 5705 5709 5712 5715 5719 5722 5725 5728 5730 5732 5734 5736 5738 5740 5742
5650 5647 5646 5644 5641 5640 5638 5636 5637 5635 5634 5634 5633 5633 5633 5633 5634 5636 5639 5642 5646 5649 5653 5657 5661 5664 5668 5672 5675 5679 5682 5684 5687 5691 5695 5699 5702 5705 5709 5712 5715 5718 5721 5723 5725 5727 5728 5731 5733
5645 5643 5641 5639 5637 5636 5634 5632 5631 5629 5628 5628 5627 5627 5627 5627 5627 5629 5631 5634 5637 5640 5644 5647 5651 5654 5658 5661 5665 5668 5671 5673 5677 5680 5684 5688 5692 5695 5699 5702 5706 5709 5711 5714 5716 5718 5720 5722 5723
5641 5639 5637 5633 5631 5631 5629 5627 5626 5624 5623 5622 5621 5621 5621 5620 5621 5622 5624 5626 5629 5632 5635 5638 5641 5645 5648 5651 5654 5658 5660 5663 5666 5670 5674 5678 5682 5685 5689 5692 5696 5699 5702 5704 5707 5709 5711 5713 5714
5636 5634 5632 5629 5626 5625 5624 5621 5622 5619 5617 5616 5615 5615 5614 5614 5614 5615 5617 5618 5621 5624 5627 5629 5632 5635 5638 5641 5644 5647 5649 5653 5656 5660 5664 5667 5671 5675 5679 5682 5685 5689 5692 5694 5697 5699 5701 5704 5705
5631 5629 5626 5624 5621 5619 5617 5616 5616 5614 5612 5611 5610 5609 5608 5608 5608 5609 5610 5612 5614 5616 5619 5621 5623 5625 5628 5630 5633 5636 5639 5642 5646 5650 5654 5657 5661 5665 5668 5672 5675 5678 5681 5684 5687 5689 5692 5694 5696
5626 5623 5621 5618 5615 5613 5612 5611 5610 5608 5607 5606 5605 5604 5603 5602 5602 5602 5604 5606 5608 5609 5611 5612 5614 5616 5618 5620 5622 5625 5628 5631 5635 5639 5643 5647 5651 5654 5658 5661 5664 5667 5671 5674 5677 5679 5682 5684 5686
5621 5619 5615 5613 5610 5608 5605 5608 5605 5603 5601 5600 5599 5598 5598 5597 5597 5597 5598 5599 5600 5601 5603 5604 5605 5606 5609 5611 5613 5615 5618 5621 5625 5629 5633 5637 5640 5644 5648 5651 5654 5657 5660 5663 5666 5669 5671 5674 5676
5615 5613 5611 5609 5606 5603 5600 5604 5599 5597 5595 5593 5593 5592 5592 5591 5591 5591 5592 5592 5593 5595 5595 5596 5597 5598 5599 5601 5603 5606 5609 5612 5615 5619 5623 5626 5630 5633 5637 5640 5643 5646 5650 5653 5656 5659 5662 5665 5667